Weather History for Hereford, TX

Change the Weather History Date:

Friday, March 15, 2013

  Actual Average (KAMA) Record (KAMA)
Temperature  
Mean Temperature 58 °F 48 °F  
Max Temperature 83 °F 62 °F 85 °F (2013)
Min Temperature 35 °F 33 °F 11 °F (1895)
Degree Days  
Heating Degree Days 6 17  
Month to date heating degree days 289  
Since 1 July heating degree days 3566  
Cooling Degree Days 0 0  
Month to date cooling degree days 0  
Year to date cooling degree days 0  
Growing Degree Days 8 (Base 50)    
Moisture  
Dew Point 24 °F    
Average Humidity 37    
Maximum Humidity 72    
Minimum Humidity 8    
Precipitation  
Precipitation 0.00 in 0.05 in 1.33 in (1998)
Month to date precipitation 0.59  
Year to date precipitation 1.87  
Snow  
Snow 0.00 in 0.10 in 11.50 in (2005)
Month to date snowfall 1.4  
Since 1 July snowfall 15.4  
Snow Depth -    
Sea Level Pressure  
Sea Level Pressure 30.01 in    
Wind  
Wind Speed 6 mph (West)    
Max Wind Speed 20 mph    
Max Gust Speed 29 mph    
Visibility 10 miles    
Events      
T = Trace of Precipitation, MM = Missing Value Source: NWS Daily Summary

Daily Weather History Graph

Daily Weather History Graph

Search for Another Location

Airport:

Trip Planner

Search our weather history database for the weather conditions in past years. The results will help you decide how hot, cold, wet, or windy it might be!

Date:

Astronomy

Mar. 15, 2013 Rise Set
Actual Time 7:59 AM CDT 7:57 PM CDT
Civil Twilight 7:34 AM CDT 8:22 PM CDT
Nautical Twilight 7:05 AM CDT 8:51 PM CDT
Astronomical Twilight 6:35 AM CDT 9:21 PM CDT
Moon 10:01 AM CDT (3/15) No Moon Set
Length of Visible Light 12h 48m
Length of Day
11h 57m
Waxing Crescent, 15% of the Moon is Illuminated
Mar 15
Waxing Crescent
Mar 19
First Quarter
Mar 27
Full
Apr 2
Last Quarter
Apr 10
New

Hourly Weather History & Observations

Time (CDT) Temp. Windchill Dew Point Humidity Pressure Visibility Wind Dir Wind Speed Gust Speed Precip Events Conditions
12:15 AM 41.7 °F - 27.5 °F 57% 30.18 in 10.0 mi Calm Calm - N/A   Clear
12:35 AM 45.0 °F - 28.0 °F 52% 30.18 in 10.0 mi Calm Calm - N/A   Clear
12:55 AM 41.2 °F 38.2 °F 29.3 °F 63% 30.18 in 10.0 mi SW 4.6 mph - N/A   Clear
1:15 AM 45.7 °F - 28.8 °F 52% 30.17 in 10.0 mi Calm Calm - N/A   Clear
1:35 AM 38.1 °F - 27.5 °F 66% 30.17 in 10.0 mi Calm Calm - N/A   Clear
1:55 AM 39.4 °F 35.2 °F 27.0 °F 61% 30.16 in 10.0 mi WNW 5.8 mph - N/A   Clear
2:15 AM 37.6 °F 30.5 °F 27.5 °F 67% 30.17 in 10.0 mi WSW 10.4 mph - N/A   Clear
2:35 AM 40.6 °F 36.0 °F 27.1 °F 59% 30.16 in 10.0 mi West 6.9 mph - N/A   Clear
2:55 AM 38.1 °F 34.6 °F 27.1 °F 65% 30.15 in 10.0 mi West 4.6 mph - N/A   Clear
3:15 AM 38.5 °F 33.4 °F 27.3 °F 64% 30.15 in 10.0 mi West 6.9 mph - N/A   Clear
3:35 AM 37.6 °F 30.5 °F 27.3 °F 66% 30.14 in 10.0 mi West 10.4 mph - N/A   Clear
3:55 AM 40.1 °F 36.9 °F 28.4 °F 63% 30.14 in 10.0 mi WSW 4.6 mph - N/A   Clear
4:15 AM 40.3 °F 36.3 °F 27.3 °F 60% 30.13 in 10.0 mi West 5.8 mph - N/A   Clear
4:35 AM 37.4 °F 32.8 °F 27.0 °F 66% 30.13 in 10.0 mi WSW 5.8 mph - N/A   Clear
4:55 AM 37.2 °F - 27.7 °F 68% 30.12 in 10.0 mi Calm Calm - N/A   Clear
5:15 AM 37.2 °F 31.2 °F 27.1 °F 67% 30.11 in 10.0 mi West 8.1 mph - N/A   Clear
5:35 AM 37.8 °F 33.3 °F 27.9 °F 67% 30.12 in 10.0 mi SW 5.8 mph - N/A   Clear
5:55 AM 36.3 °F 31.6 °F 27.1 °F 69% 30.12 in 10.0 mi SW 5.8 mph - N/A   Clear
6:15 AM 37.0 °F 31.0 °F 27.1 °F 67% 30.12 in 10.0 mi WSW 8.1 mph - N/A   Clear
6:35 AM 36.5 °F 30.3 °F 26.4 °F 67% 30.11 in 10.0 mi West 8.1 mph - N/A   Clear
6:55 AM 35.6 °F 29.9 °F 26.6 °F 70% 30.10 in 10.0 mi West 6.9 mph - N/A   Clear
7:15 AM 35.2 °F 29.5 °F 26.6 °F 71% 30.10 in 10.0 mi WSW 6.9 mph - N/A   Clear
7:35 AM 35.2 °F 29.5 °F 26.2 °F 70% 30.10 in 10.0 mi West 6.9 mph - N/A   Clear
7:55 AM 35.4 °F 29.0 °F 27.1 °F 72% 30.09 in 10.0 mi West 8.1 mph - N/A   Clear
8:15 AM 37.2 °F 31.2 °F 27.5 °F 68% 30.08 in 10.0 mi West 8.1 mph - N/A   Clear
8:35 AM 40.5 °F 35.8 °F 29.1 °F 64% 30.08 in 10.0 mi West 6.9 mph - N/A   Clear
8:55 AM 44.4 °F 40.5 °F 30.2 °F 57% 30.08 in 10.0 mi West 6.9 mph - N/A   Clear
9:15 AM 49.6 °F - 30.0 °F 47% 30.08 in 10.0 mi WSW 5.8 mph - N/A   Clear
9:35 AM 54.1 °F - 29.3 °F 39% 30.08 in 10.0 mi WSW 5.8 mph - N/A   Clear
10:55 AM 67.1 °F - 28.4 °F 23% 30.08 in 10.0 mi SW 15.0 mph - N/A   Clear
11:15 AM 69.3 °F - 28.4 °F 22% 30.07 in 10.0 mi WSW 15.0 mph - N/A   Clear
11:35 AM 72.7 °F - 26.6 °F 18% 30.06 in 10.0 mi WSW 16.1 mph 23.0 mph N/A   Clear
11:55 AM 74.5 °F - 26.1 °F 17% 30.05 in 10.0 mi WSW 17.3 mph 20.7 mph N/A   Clear
12:15 PM 75.6 °F - 25.3 °F 16% 30.04 in 10.0 mi WSW 16.1 mph 19.6 mph N/A   Clear
12:35 PM 77.5 °F - 23.7 °F 14% 30.03 in 10.0 mi WSW 15.0 mph 19.6 mph N/A   Clear
12:55 PM 79.0 °F - 21.6 °F 12% 30.02 in 10.0 mi West 19.6 mph 24.2 mph N/A   Clear
1:15 PM 80.4 °F - 20.3 °F 11% 30.01 in 10.0 mi WSW 11.5 mph 23.0 mph N/A   Clear
1:35 PM 81.1 °F - 20.3 °F 10% 30.00 in 10.0 mi WSW 17.3 mph 21.9 mph N/A   Clear
1:55 PM 82.4 °F - 20.5 °F 10% 29.99 in 10.0 mi West 12.7 mph - N/A   Clear
2:15 PM 82.8 °F - 20.7 °F 10% 29.97 in 10.0 mi West 11.5 mph 28.8 mph N/A   Clear
2:35 PM 82.6 °F - 19.6 °F 10% 29.96 in 10.0 mi SW 13.8 mph 19.6 mph N/A   Clear
2:55 PM 82.9 °F - 20.8 °F 10% 29.95 in 10.0 mi West 9.2 mph - N/A   Clear
3:15 PM 82.4 °F - 20.3 °F 10% 29.94 in 10.0 mi WNW 15.0 mph 18.4 mph N/A   Clear
3:35 PM 82.9 °F - 18.3 °F 9% 29.92 in 10.0 mi NW 10.4 mph 17.3 mph N/A   Clear
3:55 PM 82.6 °F - 16.3 °F 8% 29.92 in 10.0 mi WNW 15.0 mph 21.9 mph N/A   Clear
4:15 PM 81.9 °F - 15.4 °F 8% 29.91 in 10.0 mi NW 13.8 mph 19.6 mph N/A   Clear
4:35 PM 81.5 °F - 14.2 °F 8% 29.91 in 10.0 mi NW 15.0 mph 20.7 mph N/A   Clear
4:55 PM 82.9 °F - 14.0 °F 8% 29.90 in 10.0 mi WNW 12.7 mph - N/A   Clear
5:15 PM 82.4 °F - 13.6 °F 8% 29.90 in 10.0 mi NW 11.5 mph - N/A   Clear
5:35 PM 81.7 °F - 15.8 °F 9% 29.89 in 10.0 mi NW 13.8 mph - N/A   Clear
6:15 PM 81.1 °F - 14.2 °F 8% 29.88 in 10.0 mi NW 9.2 mph - N/A   Clear
6:35 PM 81.0 °F - 18.5 °F 10% 29.88 in 10.0 mi NW 8.1 mph - N/A   Clear
6:55 PM 79.7 °F - 19.6 °F 11% 29.88 in 10.0 mi NW 8.1 mph - N/A   Clear
7:15 PM 77.2 °F - 22.3 °F 13% 29.88 in 10.0 mi NW 6.9 mph - N/A   Clear
7:35 PM 73.4 °F - 23.2 °F 15% 29.88 in 10.0 mi NW 6.9 mph - N/A   Clear
7:55 PM 70.5 °F - 25.2 °F 18% 29.88 in 10.0 mi NW 5.8 mph - N/A   Clear
8:15 PM 69.1 °F - 25.5 °F 19% 29.88 in 10.0 mi Calm Calm - N/A   Clear
8:35 PM 65.1 °F - 26.2 °F 23% 29.88 in 10.0 mi Calm Calm - N/A   Clear
8:55 PM 64.6 °F - 23.4 °F 21% 29.88 in 10.0 mi Calm Calm - N/A   Clear
9:15 PM 62.1 °F - 26.2 °F 26% 29.87 in 10.0 mi South 3.5 mph - N/A   Clear
9:35 PM 60.8 °F - 24.1 °F 25% 29.87 in 10.0 mi Calm Calm - N/A   Clear
9:55 PM 56.5 °F - 26.8 °F 32% 29.87 in 10.0 mi South 3.5 mph - N/A   Clear
10:15 PM 57.7 °F - 25.3 °F 29% 29.87 in 5.0 mi SSW 4.6 mph - N/A   Haze
10:35 PM 57.7 °F - 22.5 °F 26% 29.87 in 7.0 mi SSW 5.8 mph - N/A   Clear
10:55 PM 55.2 °F - 22.8 °F 28% 29.87 in 10.0 mi SSW 6.9 mph - N/A   Clear
11:15 PM 53.2 °F - 23.0 °F 31% 29.87 in 10.0 mi SSW 3.5 mph - N/A   Clear
11:35 PM 50.5 °F - 25.0 °F 37% 29.86 in 10.0 mi Calm Calm - N/A   Clear
11:55 PM 43.9 °F 41.3 °F 23.9 °F 45% 29.86 in 10.0 mi NNW 4.6 mph - N/A   Clear